| time (UTC) | temp C | wind direction | speed KPH | gust KPH | rain 1hr cm | rain 24hr cm | rain mn cm | humidity % | barometer mb |
| 20260506062154 | 16 | 351 | 0.0 | 0.0 | 0.00 | 0.38 | 0.38 | 38 | 1090.6 |
| 20260506042148 | 18 | 244 | 3.2 | 4.8 | 0.00 | 0.38 | 0.38 | 36 | 1089.9 |
| 20260506035149 | 18 | 351 | 1.6 | 1.6 | 0.00 | 0.38 | 0.38 | 34 | 1089.2 |
| 20260506032148 | 19 | 259 | 3.2 | 11.3 | 0.00 | 0.38 | 0.38 | 35 | 1088.9 |
| 20260506025148 | 20 | 42 | 9.7 | 12.9 | 0.00 | 0.38 | 0.38 | 33 | 1087.9 |
| 20260506022147 | 20 | 18 | 9.7 | 16.1 | 0.00 | 0.38 | 0.38 | 31 | 1087.4 |
| 20260506015143 | 20 | 276 | 8.0 | 12.9 | 0.00 | 0.38 | 0.38 | 29 | 1087.2 |
| 20260506012141 | 21 | 352 | 3.2 | 6.4 | 0.00 | 0.38 | 0.38 | 25 | 1087.1 |
| 20260506005136 | 21 | 45 | 3.2 | 11.3 | 0.00 | 0.38 | 0.38 | 25 | 1086.9 |
| 20260506002131 | 22 | 45 | 4.8 | 6.4 | 0.00 | 0.38 | 0.38 | 26 | 1086.7 |
| 20260505235131 | 23 | 265 | 11.3 | 20.9 | 0.00 | 0.38 | 0.38 | 25 | 1086.3 |
| 20260505232126 | 23 | 301 | 3.2 | 20.9 | 0.00 | 0.38 | 0.38 | 24 | 1086.2 |
| 20260505225125 | 23 | 303 | 9.7 | 12.9 | 0.00 | 0.38 | 0.38 | 26 | 1086.1 |
| 20260505222123 | 23 | 129 | 1.6 | 16.1 | 0.00 | 0.38 | 0.38 | 25 | 1086.5 |
| 20260505215119 | 23 | 266 | 6.4 | 16.1 | 0.00 | 0.38 | 0.38 | 26 | 1086.8 |
| 20260505212118 | 24 | 187 | 1.6 | 11.3 | 0.00 | 0.38 | 0.38 | 26 | 1087.1 |
| 20260505205119 | 22 | 114 | 3.2 | 6.4 | 0.00 | 0.38 | 0.38 | 33 | 1087.9 |
| 20260505202116 | 22 | 193 | 4.8 | 9.7 | 0.00 | 0.38 | 0.38 | 39 | 1088.2 |
| 20260505195111 | 23 | 249 | 9.7 | 16.1 | 0.00 | 0.38 | 0.38 | 37 | 1087.9 |
| 20260505192111 | 23 | 89 | 0.0 | 4.8 | 0.00 | 0.38 | 0.38 | 42 | 1088.3 |
| 20260505185109 | 22 | 344 | 1.6 | 4.8 | 0.00 | 0.38 | 0.38 | 45 | 1088.6 |
| 20260505182107 | 21 | 262 | 1.6 | 4.8 | 0.00 | 0.38 | 0.38 | 47 | 1089.0 |
| 20260505175103 | 21 | 332 | 0.0 | 1.6 | 0.00 | 0.38 | 0.38 | 48 | 1089.2 |
| 20260505172102 | 20 | 307 | 1.6 | 3.2 | 0.00 | 0.38 | 0.38 | 54 | 1089.5 |
| 20260505165102 | 18 | 261 | 1.6 | 3.2 | 0.00 | 0.38 | 0.38 | 57 | 1089.4 |
| 20260505162058 | 17 | 219 | 1.6 | 6.4 | 0.00 | 0.38 | 0.38 | 63 | 1089.4 |
| 20260505152053 | 15 | 154 | 0.0 | 1.6 | 0.00 | 0.38 | 0.38 | 86 | 1089.3 |
| 20260505125041 | 13 | 154 | 0.0 | 0.0 | 0.00 | 0.38 | 0.38 | 94 | 1088.1 |
| 20260505122038 | 13 | 123 | 0.0 | 0.0 | 0.00 | 0.38 | 0.38 | 94 | 1088.0 |
| 20260505115034 | 13 | 162 | 0.0 | 0.0 | 0.00 | 0.38 | 0.38 | 93 | 1087.8 |
| 20260505112032 | 13 | 114 | 0.0 | 1.6 | 0.00 | 0.38 | 0.38 | 93 | 1088.0 |
| 20260505102027 | 13 | 113 | 3.2 | 6.4 | 0.00 | 0.36 | 0.36 | 93 | 1088.1 |
| 20260505095025 | 13 | 101 | 0.0 | 3.2 | 0.00 | 0.36 | 0.36 | 93 | 1089.0 |
| 20260505092025 | 13 | 152 | 1.6 | 4.8 | 0.00 | 0.36 | 0.36 | 93 | 1088.9 |
| 20260505085022 | 13 | 124 | 0.0 | 1.6 | 0.00 | 0.33 | 0.33 | 92 | 1089.2 |
| 20260505082021 | 13 | 73 | 1.6 | 6.4 | 0.18 | 0.30 | 0.30 | 92 | 1090.1 |
| 20260505075018 | 13 | 109 | 0.0 | 1.6 | 0.18 | 0.20 | 0.20 | 92 | 1090.9 |
| 20260505072017 | 14 | 148 | 0.0 | 1.6 | 0.48 | 0.10 | 0.10 | 92 | 1091.2 |